Date,TemperatureHighF,TemperatureAvgF,TemperatureLowF,DewpointHighF,DewpointAvgF,DewpointLowF,HumidityHigh,HumidityAvg,HumidityLow,PressureMaxIn,PressureMinIn,WindSpeedMaxMPH,WindSpeedAvgMPH,GustSpeedMaxMPH,PrecipitationSumIn
2013-1-1,50.1,47.9,44.2,48.7,41.9,31.6,95,81,52,30.11,29.96,4,1,6,0.25
2013-1-2,49.6,48.1,44.9,48.5,43.9,36.8,96,86,71,30.15,29.92,3,0,5,0.11
2013-1-3,44.9,41.2,33.8,38.4,36.2,30.3,93,82,76,30.29,30.12,1,0,5,0.00
2013-1-4,50.6,39.8,29.6,32.3,27.4,21.9,89,64,40,30.37,30.24,4,1,8,0.01
2013-1-5,48.5,40.8,29.9,33.5,28.0,23.5,83,61,46,30.41,30.24,3,1,0,0.00
2013-1-6,53.9,46.5,42.0,43.2,37.8,33.2,87,72,58,30.25,30.05,4,1,6,0.01
2013-1-7,50.7,41.3,32.5,33.1,31.0,28.2,88,69,47,30.45,30.22,2,1,5,0.00
2013-1-8,51.4,40.9,32.2,42.7,36.0,30.4,93,83,66,30.49,30.38,2,0,4,0.01
2013-1-9,63.8,51.1,40.2,54.7,47.0,38.2,95,86,71,30.46,30.38,1,0,2,0.00
2013-1-10,66.7,56.4,49.5,52.6,47.0,40.3,96,73,50,30.50,30.37,1,0,0,0.00
2013-1-11,54.3,48.7,46.5,48.8,46.8,45.1,96,93,78,30.37,30.17,1,0,5,0.16
2013-1-12,66.8,56.7,48.3,63.9,55.4,47.2,98,96,90,30.17,30.09,0,0,2,0.01
2013-1-13,70.3,62.4,58.1,63.6,59.7,57.0,97,91,78,30.13,30.04,5,1,9,0.00
2013-1-14,64.1,62.4,60.2,63.2,60.7,58.6,97,94,90,30.11,30.05,1,0,3,0.35
2013-1-15,62.3,48.1,42.1,61.4,47.2,41.3,100,97,96,30.19,30.08,3,1,7,0.18
2013-1-16,50.8,45.8,42.0,50.0,44.9,41.2,100,97,96,30.08,29.98,2,0,4,0.05
2013-1-17,51.4,46.2,34.6,50.6,45.3,33.6,98,97,95,30.18,29.83,8,2,16,2.36
2013-1-18,47.1,38.8,31.4,34.8,30.4,25.7,97,74,44,30.53,30.21,2,0,0,0.01
2013-1-19,55.0,41.5,30.6,34.5,29.4,26.2,84,64,37,30.51,30.21,5,1,7,0.00
2013-1-20,62.9,47.5,37.9,41.0,32.9,29.9,76,58,36,30.17,30.02,6,1,8,0.00
2013-1-21,59.9,46.2,34.2,40.1,32.0,21.1,95,62,32,30.08,29.91,8,2,13,0.00
2013-1-22,42.1,36.9,30.9,21.5,11.9,2.8,46,36,22,30.24,30.02,6,2,11,0.00
2013-1-23,46.2,36.2,27.0,29.1,18.0,7.6,67,48,36,30.38,30.07,5,1,11,0.00
2013-1-24,47.5,38.6,29.2,32.4,20.8,6.4,82,51,30,30.49,29.99,5,2,12,0.00
2013-1-25,27.9,26.4,23.9,25.3,15.3,8.0,90,64,45,30.53,30.16,4,1,7,0.01
2013-1-26,43.5,34.2,28.0,36.4,30.6,26.0,96,87,66,30.38,30.13,2,0,3,0.02
2013-1-27,43.6,35.7,27.7,31.0,27.4,23.3,90,73,57,30.60,30.41,2,1,6,0.00
2013-1-28,50.6,42.6,37.9,45.4,36.4,31.9,85,79,74,30.49,30.27,2,1,6,0.02
2013-1-29,71.0,56.5,43.4,60.1,51.4,42.1,96,84,64,30.26,30.03,4,0,4,0.00
2013-1-30,71.0,64.7,54.0,62.6,60.0,51.1,95,85,69,30.01,29.40,8,2,11,0.65
2013-1-31,50.9,44.9,37.8,47.8,31.8,22.4,89,62,39,30.02,29.52,9,5,17,0.01
2013-2-1,41.8,36.6,27.0,30.2,16.6,7.7,64,45,28,30.39,29.91,8,3,0,0.00
2013-2-2,28.1,27.6,27.1,13.1,12.3,11.5,54,52,50,30.39,30.37,1,0,0,0.00
2013-2-3,51.0,45.2,42.1,28.9,27.2,25.9,56,49,41,30.00,29.90,6,4,15,0.00
2013-2-4,50.6,41.0,30.9,31.0,27.2,22.9,77,59,44,30.16,30.01,3,1,0,0.00
2013-2-5,63.3,49.1,40.2,40.1,35.1,31.0,75,59,41,30.00,29.89,5,1,8,0.00
2013-2-6,63.1,47.1,37.0,42.0,34.1,23.5,95,69,23,30.17,29.99,4,1,6,0.00
2013-2-7,43.7,41.1,38.8,39.6,33.5,26.8,94,75,52,30.30,30.07,3,1,8,0.50
2013-2-8,58.4,46.6,38.5,47.9,39.5,29.9,94,78,48,30.08,29.88,7,2,12,0.03
2013-2-9,58.3,44.5,35.1,29.7,26.5,20.3,76,53,24,30.35,30.12,5,1,6,0.00
2013-2-10,55.8,44.8,35.4,41.0,28.9,23.6,82,56,29,30.47,30.25,2,0,5,0.11
2013-2-11,57.8,51.1,44.4,56.1,49.4,42.5,97,94,92,30.17,29.96,7,1,11,0.12
2013-2-12,59.5,51.9,43.3,50.2,39.2,30.0,95,64,34,30.11,29.90,2,0,7,0.00
2013-2-13,50.4,46.0,43.0,45.9,42.6,36.6,95,88,67,29.91,29.65,4,1,9,0.04
2013-2-14,52.1,41.6,32.9,38.0,34.4,30.6,93,77,53,30.07,29.89,4,1,6,0.01
2013-2-15,61.3,48.0,34.4,44.9,36.6,32.6,95,68,36,30.11,29.93,6,1,9,0.00
2013-2-16,46.4,40.1,37.3,36.0,32.2,29.9,84,73,63,29.98,29.86,2,1,5,0.00
2013-2-17,42.4,33.7,26.7,23.4,16.0,12.1,76,50,30,30.28,30.02,6,3,13,0.09
2013-2-18,54.6,41.3,27.3,34.1,24.9,16.3,78,53,39,30.40,30.25,2,0,5,0.00
2013-2-19,48.0,42.5,38.1,44.0,36.6,28.5,94,80,56,30.22,29.89,5,2,10,0.19
2013-2-20,54.4,44.5,35.5,26.3,19.0,12.5,48,37,23,30.14,30.02,6,2,12,0.00
2013-2-21,57.9,42.9,29.0,34.0,22.4,14.3,69,46,24,30.24,30.11,2,0,4,0.00
2013-2-22,42.3,38.5,37.3,37.2,36.4,35.5,95,92,82,30.31,30.17,2,1,6,0.53
2013-2-23,44.8,40.1,36.4,43.7,38.8,35.1,96,95,94,30.16,29.86,2,0,3,0.42
2013-2-24,65.1,51.5,41.4,46.7,39.4,29.3,97,70,29,30.01,29.86,4,1,7,0.00
2013-2-25,43.2,40.9,38.6,29.8,27.9,26.2,65,60,52,30.20,30.02,3,1,7,0.00
2013-3-13,55.6,45.6,38.4,34.8,28.8,19.1,80,54,31,30.17,29.98,7,2,0,0.00
2013-3-14,53.7,41.8,32.1,26.1,20.6,18.4,61,44,26,30.30,30.17,4,2,0,0.00
2013-3-15,65.4,48.8,33.7,42.5,32.3,22.2,73,55,39,30.21,29.90,4,1,0,0.00
2013-3-16,77.1,66.1,56.2,50.2,46.6,42.8,67,50,37,29.89,29.69,7,3,0,0.00
2013-3-17,71.2,58.0,44.9,55.2,46.5,39.7,82,66,50,30.11,29.83,4,1,0,0.00
2013-3-18,42.9,42.9,42.9,41.0,41.0,41.0,93,93,93,29.99,29.99,1,1,1,0.00
2013-3-19,64.8,51.0,39.5,44.6,34.0,21.7,96,61,22,30.05,29.86,7,2,15,0.00
2013-3-20,57.6,49.9,43.8,29.6,18.9,11.7,44,29,21,30.12,29.80,5,1,9,0.00
2013-3-21,47.1,40.6,33.4,28.6,17.2,12.5,56,39,29,29.89,29.80,4,3,0,0.00
2013-3-22,53.5,39.3,25.7,26.7,19.8,13.7,65,47,31,30.11,29.99,3,1,0,0.00
2013-3-23,56.9,47.0,39.8,42.7,35.6,26.7,78,65,46,30.07,29.91,2,0,4,0.00
2013-3-24,46.5,42.1,38.7,42.5,39.5,36.8,98,90,82,29.94,29.56,4,1,10,0.71
2013-3-25,46.9,41.1,37.6,37.6,31.1,23.9,95,70,43,29.90,29.57,8,4,0,0.05
2013-3-26,48.0,40.8,34.4,29.2,27.3,26.1,72,59,46,30.20,29.89,6,3,0,0.00
2013-3-27,52.5,43.1,36.2,28.4,26.1,22.7,71,52,33,30.28,30.19,5,2,0,0.00
2013-3-28,58.3,43.4,30.9,29.1,25.2,22.5,83,52,27,30.32,30.21,4,1,9,0.00
2013-3-29,62.2,47.9,32.4,38.2,31.4,26.2,89,57,28,30.36,30.19,6,1,11,0.00
2013-3-30,65.1,54.6,45.8,46.5,42.2,37.7,91,65,45,30.23,30.07,4,1,11,0.02
2013-3-31,68.6,57.6,50.8,58.8,52.1,46.0,95,83,61,30.05,29.78,8,2,13,0.47
2013-4-1,72.3,60.8,51.4,53.2,47.8,40.2,96,67,34,29.93,29.83,4,1,11,0.03
2013-4-2,64.2,53.9,42.1,39.3,33.2,22.9,76,48,26,30.16,29.96,3,1,6,0.00
2013-4-3,59.6,52.1,42.5,31.4,25.1,19.2,45,35,28,30.29,30.14,4,1,10,0.00
2013-4-4,49.5,42.9,36.5,37.2,30.4,19.7,93,66,32,30.30,30.03,5,2,13,0.91
2013-4-5,67.5,51.0,37.1,48.8,41.7,35.5,95,74,33,30.05,29.92,4,1,6,0.01
2013-4-6,69.8,55.7,41.3,44.2,39.4,35.4,89,59,29,30.24,30.06,3,0,6,0.00
2013-4-7,72.0,58.7,45.9,53.4,45.6,36.5,81,63,41,30.26,30.09,3,0,7,0.00
2013-4-8,77.8,65.5,54.1,60.3,54.5,49.1,90,70,46,30.16,30.03,3,0,9,0.00
2013-4-9,84.0,70.2,56.4,62.0,57.1,51.7,88,65,43,30.18,30.06,2,0,8,0.00
2013-4-10,85.3,72.8,59.1,64.4,59.9,55.3,89,66,43,30.08,29.92,4,0,8,0.00
2013-4-11,80.1,70.6,62.4,66.8,62.4,58.0,92,76,57,29.96,29.73,3,1,0,0.14
2013-4-12,81.2,71.0,61.3,67.4,57.8,39.5,97,68,32,29.80,29.60,9,3,19,1.71
2013-4-13,76.9,67.0,47.7,50.0,43.6,39.2,87,45,28,29.99,29.81,3,1,7,0.00
2013-4-14,77.7,63.0,48.8,55.1,48.0,43.7,86,61,33,30.06,29.98,2,0,6,0.00
2013-4-15,67.7,60.6,57.0,62.7,57.6,53.9,95,90,81,30.11,29.98,2,0,7,0.13
2013-4-16,80.4,66.5,57.9,65.1,59.9,55.9,94,81,53,30.30,30.16,2,0,6,0.00
2013-4-17,83.0,69.9,60.1,67.4,60.9,57.7,93,75,47,30.23,30.08,3,0,6,0.00
2013-4-18,79.4,70.9,64.9,65.2,62.5,60.5,88,76,55,30.14,29.97,2,0,4,0.00
2013-4-19,77.1,69.6,65.3,68.0,64.6,62.2,92,84,69,29.96,29.70,11,2,31,0.15
2013-4-20,67.1,55.4,45.6,46.8,37.3,32.2,71,52,29,30.26,29.89,3,1,8,0.00
2013-4-21,64.1,53.6,45.0,44.3,38.6,33.5,68,57,43,30.46,30.27,3,1,8,0.00
2013-4-22,66.2,53.6,42.3,40.8,36.3,30.4,79,55,28,30.44,30.23,4,2,8,0.00
2013-4-23,72.8,59.4,50.0,54.6,47.3,38.2,78,65,51,30.28,30.10,3,0,6,0.00
2013-4-24,72.9,63.2,53.8,60.3,55.9,51.3,93,78,60,30.13,29.98,5,2,0,0.00
2013-4-25,74.0,62.3,51.9,58.6,45.2,37.4,87,56,28,30.25,30.03,4,1,9,0.00
2013-4-26,71.8,59.9,47.2,47.3,39.0,35.6,69,48,28,30.43,30.28,3,1,7,0.00
2013-4-27,63.6,59.8,57.4,56.4,51.9,47.4,92,76,64,30.35,30.27,4,0,6,0.02
2013-4-28,57.1,56.5,55.8,55.5,54.6,53.3,96,93,90,30.24,30.06,1,0,5,1.77
2013-4-29,74.4,60.8,56.6,65.1,58.2,55.5,97,91,67,30.05,29.94,2,0,4,0.24
2013-4-30,73.0,63.8,58.7,63.0,59.3,55.3,95,86,67,30.16,29.98,2,1,0,0.00
2013-5-1,65.8,60.2,54.8,59.0,56.2,52.3,93,87,74,30.28,30.17,3,1,8,0.00
2013-5-2,62.4,58.5,56.2,57.8,55.9,54.3,95,91,84,30.31,30.24,2,1,8,0.08
2013-5-3,64.3,57.6,54.5,55.6,53.6,51.3,92,87,69,30.23,30.18,3,1,8,0.00
2013-5-4,63.8,56.3,50.4,52.4,48.5,44.3,86,75,62,30.14,30.00,4,2,10,0.00
2013-5-5,56.8,53.6,50.6,55.3,50.3,47.6,95,89,82,30.06,29.88,4,2,13,0.28
2013-5-6,71.3,61.9,56.0,63.4,56.6,49.6,97,84,53,29.89,29.81,4,2,6,1.04
2013-5-7,73.6,58.9,50.6,55.5,51.6,47.8,93,78,45,29.94,29.84,3,1,7,0.14
2013-5-8,75.2,62.8,53.0,61.4,56.3,51.5,96,81,56,29.99,29.91,6,1,13,0.01
2013-5-9,83.5,68.0,55.0,62.2,57.5,53.3,95,72,42,30.08,29.99,3,0,7,0.01
2013-5-10,82.6,62.4,59.4,66.5,59.5,57.7,96,91,51,30.05,29.95,6,0,6,0.00
2013-5-11,79.1,72.0,64.0,66.4,62.9,59.4,91,74,56,29.94,29.77,6,2,12,0.04
2013-5-12,74.2,65.3,55.8,61.8,50.8,36.9,93,64,32,30.01,29.82,5,1,9,0.01
2013-5-13,70.3,59.0,46.1,43.4,37.8,32.3,80,47,26,30.17,30.04,3,1,0,0.00
2013-5-14,74.8,60.2,45.0,49.7,43.2,37.7,82,56,36,30.26,30.06,5,1,11,0.00
2013-5-15,89.3,76.1,61.2,67.2,60.3,49.4,81,59,44,30.06,29.90,6,2,10,0.00
2013-5-16,83.3,73.2,61.3,66.7,61.4,57.0,90,69,42,30.00,29.91,4,1,9,0.00
2013-5-17,79.4,68.7,64.1,70.0,64.1,61.4,92,85,73,30.07,29.98,2,0,4,0.00
2013-5-18,72.2,69.6,66.3,66.7,64.8,62.6,91,85,76,30.12,30.03,2,0,0,0.05
2013-5-19,78.2,70.2,67.1,70.6,67.1,64.7,95,90,74,30.11,30.01,4,0,6,1.06
2013-5-20,81.2,71.5,68.0,72.7,68.4,66.5,96,90,69,30.10,30.00,4,1,4,0.09
2013-5-21,87.3,75.4,66.7,74.4,68.4,63.7,96,81,57,30.03,29.91,3,0,5,0.01
2013-5-22,86.1,74.7,66.7,72.4,68.0,62.9,94,81,57,29.99,29.86,5,2,8,0.02
2013-5-23,80.8,70.8,65.6,71.1,66.4,63.1,95,86,67,29.96,29.80,3,1,6,0.27
2013-5-24,74.1,67.9,60.9,63.1,51.8,36.9,88,60,27,30.17,29.85,4,1,11,0.00
2013-5-25,77.7,63.3,49.1,51.3,44.4,38.9,80,52,31,30.31,30.14,5,1,10,0.00
2013-5-26,77.9,65.3,56.7,55.6,48.6,40.5,79,56,41,30.29,30.16,3,0,4,0.01
2013-5-27,83.6,70.3,57.2,63.4,58.4,54.5,92,68,45,30.27,30.12,3,1,6,0.00
2013-5-28,85.4,75.3,66.5,67.8,64.7,60.9,89,71,52,30.21,30.12,3,2,7,0.00
2013-5-29,86.2,75.8,66.3,67.9,64.4,61.3,85,69,49,30.22,30.13,3,2,9,0.00
2013-5-30,87.4,76.0,66.6,67.9,64.6,61.9,88,69,44,30.26,30.14,5,1,8,0.00
2013-5-31,87.5,77.6,70.7,70.0,67.4,65.2,90,72,49,30.21,30.08,5,1,9,0.00
2013-6-1,86.2,78.3,71.0,70.4,68.2,65.9,89,72,52,30.11,29.99,5,2,12,0.00
2013-6-2,82.5,75.2,69.3,72.4,68.4,66.2,93,80,68,30.01,29.88,4,2,12,0.11
2013-6-3,83.4,73.7,67.5,74.1,68.9,66.0,96,86,68,29.93,29.82,5,1,6,0.18
2013-6-4,83.0,74.8,66.2,70.5,67.6,64.4,95,79,62,30.05,29.92,3,1,6,0.27
2013-6-5,78.7,72.0,67.9,71.1,67.6,64.8,94,86,76,30.09,29.96,1,0,4,0.17
2013-6-6,77.6,72.5,70.4,73.8,70.5,68.9,95,93,86,29.97,29.78,4,1,9,0.63
2013-6-7,83.0,72.1,68.3,74.8,69.2,65.6,97,91,71,29.80,29.63,6,1,10,1.17
2013-6-8,86.2,74.6,65.6,71.9,68.6,64.1,96,83,59,30.07,29.81,3,0,10,0.06
2013-6-9,88.9,76.6,69.0,73.6,70.4,66.6,93,82,58,30.12,30.02,3,1,10,0.06
2013-6-10,81.4,74.6,70.5,73.8,70.7,67.4,94,88,76,30.06,29.87,6,2,13,0.10
2013-6-11,88.8,77.4,69.3,70.9,67.9,65.2,94,75,49,29.97,29.90,5,2,0,0.01
2013-6-12,92.3,79.9,67.1,79.5,72.0,65.3,95,78,57,29.98,29.87,6,1,10,0.00
2013-6-13,93.4,80.1,69.6,75.7,72.3,65.4,93,79,50,29.85,29.60,7,2,13,0.69
2013-6-14,85.7,75.5,65.3,66.2,59.8,56.1,86,60,39,29.99,29.75,3,1,7,0.00
2013-6-15,86.0,73.9,62.1,66.5,62.9,59.0,92,70,49,30.12,30.02,5,1,6,0.00
2013-6-16,87.4,77.5,68.5,72.5,67.1,63.5,84,71,54,30.12,29.99,6,2,13,0.00
2013-6-17,85.7,75.7,72.0,73.5,70.3,68.1,94,84,64,30.01,29.92,5,1,10,0.92
2013-6-18,82.5,74.5,71.2,74.9,71.2,69.4,95,90,74,29.94,29.76,7,2,11,0.25
2013-6-25,90.1,79.1,72.8,75.0,72.2,69.9,93,80,59,30.11,29.97,5,3,0,0.00
2013-6-26,89.4,76.2,71.0,76.6,71.4,67.7,95,86,62,30.01,29.89,4,2,0,0.17
2013-6-27,88.7,79.1,74.6,76.8,73.6,71.7,94,84,66,29.92,29.71,4,2,0,0.00
2013-6-28,91.4,79.4,71.0,76.5,72.4,68.7,95,81,54,29.73,29.57,5,1,0,2.44
2013-6-29,87.2,77.9,71.2,74.2,72.0,69.7,96,83,60,29.69,29.60,3,1,0,0.00
2013-6-30,85.8,75.8,67.9,74.7,70.8,65.8,94,85,67,29.83,29.67,3,1,0,0.24
2013-7-1,83.0,74.9,67.5,74.0,70.2,65.7,96,86,71,29.93,29.81,3,1,7,0.11
2013-7-2,77.9,74.0,71.9,73.6,71.5,70.1,95,92,84,30.12,29.95,4,2,9,0.91
2013-7-3,79.8,76.2,73.1,75.1,73.2,71.3,95,91,84,30.20,30.12,2,0,6,0.21
2013-7-4,87.8,77.2,71.4,76.3,73.1,69.3,95,88,62,30.23,30.12,4,1,9,1.73
2013-7-5,83.4,77.0,74.4,77.8,73.8,70.7,95,90,78,30.23,30.16,6,1,7,0.17
2013-7-6,85.2,77.0,72.5,76.7,73.1,71.0,95,88,69,30.22,30.09,4,1,6,0.19
2013-7-7,86.2,78.7,74.4,78.4,74.4,72.1,94,87,72,30.15,30.04,4,2,6,0.01
2013-7-8,88.4,79.6,73.0,77.1,73.8,71.5,95,83,61,30.17,30.08,3,1,0,0.04
2013-7-9,91.8,80.8,73.1,77.3,74.3,70.9,94,82,57,30.14,30.02,4,1,0,0.26
2013-7-10,87.6,77.6,72.2,77.5,73.2,70.4,95,87,67,30.09,29.92,4,2,7,0.10
2013-7-11,78.2,74.7,70.4,75.4,72.5,68.2,95,93,90,29.95,29.85,3,1,0,0.16
2013-7-12,83.0,75.4,70.8,74.5,70.9,67.4,96,87,69,30.00,29.86,4,1,7,0.01
2013-7-13,81.2,74.0,69.6,74.2,69.8,66.5,94,87,77,30.10,30.00,2,1,6,0.10
2013-7-14,88.3,78.1,73.0,76.6,73.1,70.8,96,86,62,30.25,30.08,3,1,8,0.34
2013-7-15,90.8,79.9,71.7,75.8,72.2,70.0,95,79,54,30.31,30.22,1,0,0,0.00
2013-7-16,93.5,81.4,71.1,76.8,72.7,69.3,95,77,47,30.29,30.18,4,1,6,0.00
2013-7-17,92.8,79.3,72.1,80.2,73.3,67.8,94,83,59,30.22,30.11,3,0,5,0.25
2013-7-18,93.1,80.6,71.6,79.4,74.4,70.2,96,83,51,30.15,30.03,6,1,8,0.00
2013-7-19,90.8,82.5,76.0,78.4,75.7,73.5,93,81,62,30.08,29.96,4,1,12,0.00
2013-7-20,86.2,78.2,73.7,77.8,74.4,71.9,95,88,75,30.01,29.90,4,2,0,0.17
2013-7-21,89.2,77.0,71.9,78.6,73.3,70.7,96,89,66,29.99,29.89,5,1,7,0.10
2013-7-22,86.9,77.9,72.5,77.7,73.4,71.0,96,87,69,29.97,29.82,4,2,9,0.00
2013-7-23,89.7,80.4,72.9,74.6,72.1,69.0,94,77,52,29.83,29.74,5,3,10,0.00
2013-7-24,91.8,81.0,72.2,75.7,72.7,69.4,94,77,54,29.84,29.71,4,1,7,0.29
2013-7-25,85.7,76.7,68.1,72.3,69.3,65.8,95,79,59,30.00,29.80,2,0,7,0.02
2013-7-26,87.3,78.3,70.9,71.7,69.6,67.5,89,76,58,30.09,29.99,2,0,0,0.00
2013-7-27,76.7,75.5,71.0,73.2,71.5,68.9,93,88,79,30.01,29.95,6,1,8,0.84
2013-7-28,86.5,76.2,71.3,74.9,71.4,69.1,95,86,63,29.98,29.90,4,2,0,0.06
2013-7-29,88.0,77.3,67.7,71.5,68.7,65.3,95,77,50,30.14,29.99,1,0,0,0.01
2013-7-30,84.4,76.4,68.6,70.8,66.7,61.5,86,73,56,30.21,30.11,4,0,4,0.00
2013-7-31,81.3,75.0,71.3,73.7,70.8,69.2,95,87,76,30.14,29.98,2,0,5,0.72
2013-8-1,85.6,80.0,73.2,78.0,74.0,71.1,94,82,69,29.97,29.86,4,1,6,0.02
2013-8-2,88.2,79.1,69.8,72.8,70.4,67.6,94,76,51,30.02,29.90,3,0,5,0.00
2013-8-3,87.7,80.7,74.4,78.0,73.3,70.2,93,79,59,30.00,29.91,5,2,9,0.00
2013-8-4,89.3,80.3,71.3,73.1,69.3,66.1,90,71,48,29.99,29.90,2,0,9,0.00
2013-8-5,85.5,80.6,72.8,72.8,69.1,65.9,79,68,57,30.05,29.95,3,1,8,0.00
2013-8-6,77.8,73.3,69.2,71.3,69.2,66.3,92,87,77,30.04,29.96,4,2,8,0.11
2013-8-7,83.7,76.7,73.0,75.1,71.5,69.8,94,85,70,30.08,30.00,2,1,0,0.15
2013-8-8,85.9,79.1,74.5,77.5,73.6,70.0,91,83,73,30.04,29.97,2,1,0,0.00
2013-8-9,90.6,80.7,75.2,79.3,74.7,72.3,93,83,67,30.04,29.97,5,2,0,0.00
2013-8-10,91.9,79.8,73.6,79.8,74.9,70.7,93,86,65,30.07,30.00,9,2,13,0.42
2013-8-11,91.5,85.5,73.7,78.0,76.0,72.2,95,74,61,30.10,30.01,3,2,9,0.00
2013-8-12,92.6,80.4,73.9,77.7,73.8,70.9,94,81,60,30.04,29.92,4,1,0,0.00
2013-8-13,87.7,78.3,73.2,76.5,73.0,70.6,95,84,65,29.94,29.78,5,2,0,0.00
2013-8-14,75.3,73.3,70.6,71.0,67.4,63.4,87,82,71,29.97,29.84,1,0,6,0.00
2013-8-15,76.9,69.5,61.8,61.9,59.9,58.4,89,73,55,30.15,30.06,2,0,0,0.00
2013-8-16,73.4,67.3,62.2,63.7,60.3,57.1,86,79,65,30.16,30.08,2,0,6,0.01
2013-8-17,66.7,64.4,62.3,64.9,61.8,59.6,96,92,85,30.19,30.13,2,0,6,0.75
2013-8-18,80.4,71.2,65.4,72.7,68.0,64.2,97,90,75,30.22,30.12,2,0,5,0.08
2013-8-19,79.6,72.3,68.9,73.0,69.7,67.5,96,92,78,30.17,30.08,1,0,6,0.58
2013-8-20,82.0,74.2,68.4,73.7,70.3,67.2,96,88,74,30.18,30.10,2,0,4,0.00
2013-8-21,82.8,75.6,72.0,76.9,72.4,70.2,95,90,79,30.21,30.09,4,1,7,0.00
2013-8-22,89.9,78.8,71.9,77.5,72.9,70.4,96,83,60,30.13,29.98,5,1,5,0.00
2013-8-23,87.8,75.3,70.1,76.1,70.8,67.2,95,87,58,30.03,29.95,4,1,6,0.20
2013-8-24,83.8,73.4,64.7,68.7,63.5,60.1,92,74,47,30.26,30.08,2,1,6,0.00
2013-8-25,82.1,71.5,61.9,68.0,62.6,59.3,93,75,51,30.38,30.27,2,0,4,0.00
2013-8-26,85.4,72.3,61.1,68.5,63.7,59.1,95,76,52,30.31,30.10,3,0,5,0.00
2013-8-27,87.1,77.3,67.7,74.4,69.6,64.4,91,78,62,30.12,29.97,4,1,0,0.00
2013-8-28,83.9,74.7,70.6,75.5,70.8,68.5,94,88,72,30.00,29.93,3,0,5,0.00
2013-8-29,93.5,82.6,75.3,78.2,73.9,71.3,89,76,53,29.96,29.86,2,1,5,0.02
2013-8-30,89.0,78.9,71.9,72.1,69.8,66.7,92,75,49,30.03,29.91,3,0,5,0.00
2013-8-31,88.7,78.2,71.5,77.1,72.0,68.4,92,82,65,29.94,29.84,4,1,6,0.01
2013-9-1,90.1,76.7,70.7,78.2,71.7,68.2,95,85,62,29.89,29.77,5,1,11,0.50
2013-9-2,89.9,77.8,70.4,77.9,72.9,69.2,96,86,62,29.89,29.79,3,0,5,0.01
2013-9-3,90.5,80.7,73.3,77.6,72.1,66.9,95,77,47,29.93,29.79,3,0,7,0.00
2013-9-4,88.6,76.9,66.1,69.5,65.5,61.4,85,69,48,30.07,29.95,3,0,4,0.00
2013-9-5,89.2,76.5,67.1,71.7,67.0,62.9,94,75,42,30.10,30.03,2,0,5,0.00
2013-9-6,86.0,75.3,66.6,66.6,63.3,60.5,85,68,47,30.18,30.06,2,0,5,0.00
2013-9-7,84.1,73.0,62.8,70.2,64.7,59.0,90,76,59,30.12,29.97,5,1,8,0.00
2013-9-8,86.5,73.1,68.1,71.8,67.6,65.6,92,83,57,29.97,29.94,3,0,4,0.00
2013-9-13,86.0,76.8,66.8,70.6,63.0,52.9,89,65,42,29.90,29.77,2,1,0,0.00
2013-9-14,79.3,67.5,58.0,60.0,55.1,49.8,79,65,50,30.11,29.91,3,1,0,0.00
2013-9-15,81.6,70.5,57.7,67.0,62.0,53.9,88,75,59,30.22,30.10,1,0,0,0.00
2013-9-16,86.9,75.1,66.1,71.8,65.7,62.2,93,74,49,30.15,30.04,2,0,0,0.00
2013-9-17,76.4,69.7,63.0,61.7,57.9,56.0,82,67,51,30.29,30.16,2,1,0,0.00
2013-9-18,75.5,67.0,58.9,59.9,56.3,53.4,83,69,53,30.31,30.16,2,0,0,0.00
2013-9-19,76.9,69.0,62.9,65.6,59.5,54.6,86,72,64,30.19,30.08,2,0,3,0.00
2013-9-20,90.4,76.8,66.8,72.6,67.0,63.1,89,73,45,30.07,29.90,2,0,3,0.00
2013-9-21,73.8,71.2,66.2,70.9,68.4,64.7,95,91,86,29.91,29.69,5,2,12,1.26
2013-9-22,79.6,68.8,59.1,62.6,59.0,56.1,95,73,48,29.88,29.70,2,0,7,0.00
2013-9-23,77.3,67.0,58.3,61.4,56.6,53.3,85,70,54,30.06,29.91,3,0,4,0.00
2013-9-24,80.1,69.7,63.8,63.2,59.8,57.0,84,72,53,30.07,29.93,2,0,0,0.00
2013-9-25,70.9,66.2,62.7,64.8,61.5,59.2,94,85,74,29.94,29.86,5,0,6,0.06
2013-9-26,77.3,67.8,59.3,62.8,59.0,55.9,93,75,51,29.98,29.88,2,0,6,0.00
2013-9-27,77.3,66.2,56.4,62.1,56.5,53.2,89,73,51,30.18,30.03,1,0,0,0.00
2013-9-28,72.9,63.9,54.9,59.7,55.2,52.3,92,74,54,30.25,30.16,2,0,6,0.00
2013-9-29,73.8,63.7,56.6,62.4,56.6,52.1,89,78,59,30.18,30.03,4,0,6,0.00
2013-9-30,79.6,65.9,54.9,61.5,56.7,52.9,94,75,46,30.10,30.00,3,0,4,0.00
2013-10-1,83.2,72.6,60.0,66.1,61.3,55.8,86,69,49,30.13,30.02,3,0,6,0.00
2013-10-2,84.0,70.6,60.5,68.7,62.3,58.5,94,77,48,30.15,30.05,3,0,6,0.00
2013-10-10,73.7,63.6,53.0,63.4,56.3,48.4,87,77,69,30.12,29.96,1,0,0,0.00
2013-10-11,77.7,70.0,62.2,63.6,60.4,56.6,84,72,56,29.98,29.91,3,0,0,0.00
2013-10-12,74.0,67.9,61.4,64.8,62.3,59.1,93,83,72,30.08,29.95,1,0,0,0.00
2013-10-13,71.5,66.7,63.4,64.6,62.2,60.4,90,86,76,30.21,30.08,1,0,0,0.00
2013-10-14,70.2,64.4,60.6,64.1,60.5,57.5,94,87,78,30.24,30.16,1,0,0,0.05
2013-10-15,75.3,65.2,59.0,59.4,56.8,54.9,89,76,51,30.20,30.04,1,0,0,0.00
2013-10-16,73.8,64.5,55.2,63.5,58.3,52.6,93,81,67,30.07,29.95,3,0,6,0.00
2013-10-17,70.1,66.4,63.0,65.5,62.6,59.4,94,88,80,29.96,29.83,4,1,11,0.06
2013-10-18,71.4,63.5,55.0,63.6,56.5,51.8,94,79,56,30.04,29.89,1,0,4,0.00
2013-10-19,63.4,60.8,56.9,60.7,57.6,54.5,94,89,84,29.96,29.83,4,1,8,0.02
2013-10-20,66.1,56.1,46.7,53.6,46.0,41.3,94,72,43,30.09,29.92,3,0,5,0.01
2013-10-21,69.3,56.4,45.3,55.7,49.6,43.3,94,79,59,30.16,30.02,4,0,8,0.00
2013-10-22,68.1,62.8,58.9,58.9,56.7,55.1,91,81,66,30.01,29.78,3,2,0,0.00
2013-10-23,65.7,57.4,47.2,59.1,46.6,33.4,93,70,41,30.02,29.71,6,2,16,0.00
2013-10-24,58.8,49.5,40.7,42.3,36.8,32.4,76,62,49,30.18,30.03,6,1,9,0.00
2013-10-25,53.9,46.5,39.0,38.5,34.3,30.0,82,64,46,30.39,30.18,2,0,0,0.00
2013-10-26,58.1,46.2,34.2,41.2,35.3,29.9,90,68,45,30.38,30.10,6,2,11,0.00
2013-10-27,69.1,56.6,44.3,51.8,45.9,39.6,91,68,51,30.14,30.05,4,1,9,0.00
2013-10-28,66.1,58.2,52.2,57.0,53.4,49.9,93,84,70,30.26,30.11,1,0,0,0.00
2013-10-29,73.0,61.7,51.6,60.5,55.5,49.9,95,81,56,30.33,30.23,3,0,0,0.00
2013-10-30,78.2,65.7,56.9,63.3,58.4,54.0,92,78,56,30.28,30.14,6,1,11,0.00
2013-10-31,69.8,65.6,61.0,65.2,59.8,57.1,88,82,75,30.16,29.87,3,1,0,0.00
2013-11-1,69.7,65.5,60.2,65.2,61.9,57.9,94,88,80,29.86,29.66,5,3,0,0.36
2013-11-2,69.2,58.3,51.2,59.6,50.5,40.0,95,77,45,29.98,29.71,4,1,0,0.03
2013-11-3,62.0,52.6,43.9,43.2,39.8,36.1,86,63,41,30.35,29.99,3,0,8,0.00
2013-11-4,58.7,48.8,38.8,38.0,35.5,33.3,83,62,40,30.54,30.37,2,0,0,0.00
2013-11-5,56.2,47.5,37.3,48.7,39.6,30.7,90,74,66,30.57,30.45,1,0,0,0.00
2013-11-6,69.0,57.3,50.3,56.9,51.5,47.2,93,82,63,30.44,30.13,4,0,6,0.00
2013-11-7,69.0,56.7,47.5,61.0,49.7,35.8,96,79,44,30.13,29.95,3,1,14,0.01
2013-11-8,59.2,46.9,36.8,34.9,31.3,27.1,80,57,32,30.33,30.16,3,0,1,0.00
2013-11-9,57.8,47.3,35.8,39.4,34.3,29.1,88,63,39,30.40,30.21,5,1,7,0.00
2013-11-10,71.1,56.2,41.9,46.4,38.8,30.6,88,55,30,30.24,30.11,3,1,0,0.00
2013-11-11,60.3,50.1,40.6,37.4,31.7,26.4,68,50,35,30.36,30.18,4,1,5,0.00
2013-11-12,67.4,51.3,39.1,43.0,37.1,31.0,83,59,37,30.28,30.06,4,1,9,0.02
2013-11-13,47.3,36.6,28.8,26.8,21.7,18.3,73,56,35,30.58,30.47,3,0,7,0.00
2013-11-14,48.6,37.3,32.0,29.3,24.8,23.7,74,61,42,30.50,30.46,5,2,3,0.00
2013-11-15,58.1,49.5,39.7,47.7,37.0,26.4,91,63,45,30.36,30.20,3,0,0,0.12
2013-11-16,61.8,54.9,49.7,56.6,52.1,47.3,94,90,82,30.28,30.20,4,0,4,0.01
2013-11-17,65.3,59.2,55.3,61.7,57.3,53.3,96,93,87,30.21,29.93,1,0,3,0.10
2013-11-18,74.2,64.6,51.9,66.0,51.2,34.3,96,66,35,30.00,29.82,5,1,0,0.01
2013-11-19,55.1,48.8,43.0,32.0,29.5,27.2,62,48,35,30.28,29.99,3,1,10,0.00
2013-11-20,53.2,45.2,37.0,36.0,32.3,28.5,71,61,48,30.46,30.28,4,1,9,0.00
2013-11-21,56.3,48.8,44.4,45.6,39.3,32.8,75,70,62,30.51,30.39,2,1,7,0.00
2013-11-22,64.9,57.2,51.3,58.8,51.9,44.3,91,82,76,30.41,30.11,5,1,7,0.00
2013-11-23,60.9,55.1,42.6,57.7,44.3,22.8,95,70,39,30.22,30.06,2,1,0,0.00
2013-11-24,41.8,36.2,29.9,22.5,12.9,5.5,53,39,24,30.55,30.22,3,2,9,0.00
2013-12-15,52.9,43.6,37.3,43.5,36.7,29.7,96,78,57,30.12,29.77,3,2,0,0.00
2013-12-16,56.8,44.4,31.5,40.2,34.0,27.8,87,68,47,30.19,30.09,3,1,0,0.00
2013-12-17,60.1,49.3,36.6,42.2,36.0,29.3,83,62,44,30.14,29.91,6,1,0,0.00
2013-12-18,51.3,43.4,36.0,29.0,24.0,17.7,61,47,27,30.29,30.07,5,1,0,0.00
2013-12-19,61.9,47.9,34.6,35.4,30.0,23.9,75,52,26,30.33,30.23,4,1,0,0.00
2013-12-20,62.2,52.5,42.7,51.1,43.6,33.1,87,72,55,30.24,30.14,5,1,0,0.00
2013-12-21,67.2,59.3,52.0,62.3,55.3,48.9,92,87,80,30.14,29.99,2,0,5,0.00
2013-12-22,69.7,66.0,62.0,67.5,63.8,60.3,97,92,86,30.06,29.97,4,1,7,0.81
2013-12-23,63.1,57.3,44.4,61.9,55.4,38.0,97,93,78,30.18,29.98,5,1,0,1.12
2013-12-24,47.0,39.5,29.8,36.4,28.0,17.5,84,64,43,30.47,30.17,4,1,0,0.00
2013-12-25,35.5,27.9,23.9,16.8,15.3,13.8,68,59,42,30.58,30.47,2,1,6,0.00
2013-12-26,49.4,38.1,29.2,31.9,25.5,17.5,79,61,46,30.40,30.28,3,0,0,0.00
2013-12-27,50.3,38.5,29.4,32.7,26.9,22.9,90,65,38,30.49,30.38,3,0,0,0.00
2013-12-28,53.8,42.0,30.6,42.0,35.2,28.8,94,79,50,30.43,30.14,2,0,0,0.04
2013-12-29,56.7,47.0,41.5,51.0,43.8,39.8,95,89,71,30.12,29.77,6,1,8,1.10
2013-12-30,52.8,44.8,38.3,45.1,40.7,36.7,95,86,70,30.13,29.95,3,0,4,0.00
2013-12-31,50.6,42.8,35.8,38.2,31.1,23.7,90,66,35,30.38,30.11,6,1,9,0.00
2014-1-1,50.2,41.3,31.8,36.0,31.5,26.4,87,69,50,30.41,30.16,1,0,0,0.00
2014-1-2,46.7,43.6,40.5,45.1,39.6,35.4,94,86,76,30.15,29.65,4,1,9,0.29